Regional Weather Roundup
Issued by NWS Portland, ME

Home | Current Version | Previous Version | Text Only | Print | Product List | Glossary On
Versions: 1 2 3 4 5 6 7 8 9 10 11 12 13 14 15 16 17 18 19 20 21 22 23 24 25 26 27 28 29 30 31 32 33 34 35 36 37 38 39 40 41 42 43 44 45 46 47 48 49 50
000
ASUS41 KGYX 192105
RWRGYX
WEATHER ROUNDUP FOR MAINE AND NEW HAMPSHIRE
NATIONAL WEATHER SERVICE GRAY ME
500 PM EDT SUN APR 19 2015

MEZ002-005-006-010-012-015-018-020-021-024-026-027-029-192200-
MAINE

CITY           SKY/WX    TMP DP  RH WIND       PRES   REMARKS
PORTLAND       MOSUNNY   51  32  48 S10G16    30.21F
SANFORD        SUNNY     50  30  46 SE9       30.21S
BAR HARBOR     MOSUNNY   55  25  30 CALM      30.17F
WISCASSET      SUNNY     49  35  58 S10       30.22R
ROCKLAND       SUNNY     45  36  70 S14       30.21S
FRYEBURG       SUNNY     60  21  22 NE8       30.17F
LEWISTONAUBURN SUNNY     55  21  26 NW3       30.18F
AUGUSTA        SUNNY     55  26  32 NE7       30.19F
WATERVILLE     SUNNY     55  25  30 NW3       30.16F
BANGOR         MOSUNNY   55  21  26 NW9G20    30.18F
GREENVILLE       N/A     49  18  29 NW9       30.14S
MILLINOCKET    SUNNY     54  18  24 W9G16     30.16F
HOULTON        MOSUNNY   51  17  26 W13G21    30.13S
PRESQUE ISLE   SUNNY     52  10  19 NW14G20   30.14S
FRENCHVILLE    SUNNY     45   9  23 NW21      30.13S
CARIBOU        SUNNY     50  14  23 NW13G20   30.13S
$$

NHZ002-005-008-009-011-012-014-192200-
NEW HAMPSHIRE

CITY           SKY/WX    TMP DP  RH WIND       PRES   REMARKS
PORTSMOUTH     PTSUNNY   49  32  51 SE13      30.20F
ROCHESTER      SUNNY     52  34  50 S8        30.19S
NASHUA         SUNNY     60  33  36 SE12      30.17S
MANCHESTER     PTSUNNY   60  33  36 SE20      30.15S
CONCORD        SUNNY     63  22  20 VRB7      30.15F
LACONIA        SUNNY     59  19  21 SE3       30.14S
PLYMOUTH       FAIR      60  30  32 W6        30.15F
BERLIN         SUNNY     54  21  27 NE5       30.17F
WHITEFIELD     SUNNY     56  18  22 VRB5      30.17F
JAFFREY        SUNNY     59  24  26 CALM      30.15F
KEENE          SUNNY     61  21  21 CALM      30.16S
LEBANON        SUNNY     59  23  25 VRB3      30.15F
MT WASHINGTON  MOSUNNY   28  12  50 VRB2        N/A
$$

VTZ005-007-008-192200-
VERMONT

CITY           SKY/WX    TMP DP  RH WIND       PRES   REMARKS
ST JOHNSBURY     N/A     56  18  22 MISG      30.16F
MONTPELIER     SUNNY     54  18  24 N5        30.20F
BURLINGTON     SUNNY     55  27  34 N7        30.18F
$$

MAZ007-012-024-CTZ003-RIZ002-NYZ038-NYZ072-192200-
SOUTHERN NEW ENGLAND AND NY

CITY           SKY/WX    TMP DP  RH WIND       PRES   REMARKS
BOSTON         CLOUDY    46  32  58 E16       30.22F
WORCESTER      MOSUNNY   59  24  26 VRB6      30.15F
NANTUCKET      MOSUNNY   47  35  63 NE14      30.24F
PROVIDENCE     MOSUNNY   51  34  52 S15G23    30.22R
HARTFORD       PTSUNNY   64  23  21 VRB6      30.15F
ALBANY         PTSUNNY   62  27  26 CALM      30.14F
NEW YORK CITY  PTSUNNY   55  32  41 SE9G20    30.20R
$$

ANZ081-ANZ082-ANZ150-NHZ014-MEZ023>029-192200-
COASTAL MARINE OBSERVATIONS

STATION/POSITION TIME  TEMP    WIND        PRES    WAVE
                       AIR SEA DIR/SP/G            HT/PER
                 (UTC) (F)     (DEG/KT/KT) (MB)    (FT/S)
MOUNT DESERT ROC 2100   42     190/ 15/ 16 1023.3S
MATINICUS ROCK   2000   40     210/ 15/ 16 1023.4F
WELLS            2000   45 42  180/  8/ 10 1022.9F
ISLE OF SHOALS   2000   42     150/ 15/ 16 1022.8F
CASHES LEDGE BUO 2050   42 42              1023.7F   2/ 8
$$

.............KEY..............
   WCI - WIND CHILL
   TC  - TEMPERATURE IN CELSIUS
   VSB - VISIBILITY IN MILES
   HX  - HEAT INDEX
   FAIR- INDICATES FEW OR NO CLOUDS BELOW 12,000 FT, WITH NO
         SIGNIFICANT WEATHER AND/OR OBSTRUCTIONS TO VISIBILITY.




USA.gov is the U.S. government's official web portal to all federal, state and local government web resources and services.